Weather reports worldwide

Advertisment
Lamezia Terme, Italy (16362): temperature & dewpoint: 09.12.2019 18:00:00 - 15.12.2019 18:00:00 (CET)Lamezia Terme, Italy (16362): wind speed: 09.12.2019 18:00:00 - 15.12.2019 18:00:00 (CET)Lamezia Terme, Italy (16362): wind direction: 09.12.2019 18:00:00 - 15.12.2019 18:00:00 (CET)Lamezia Terme, Italy (16362): reduced air pressure: 09.12.2019 18:00:00 - 15.12.2019 18:00:00 (CET)Lamezia Terme, Italy (16362): visibility: 09.12.2019 18:00:00 - 15.12.2019 18:00:00 (CET)Lamezia Terme, Italy (16362): precipitation: 09.12.2019 18:00:00 - 15.12.2019 18:00:00 (CET)
Date & Time tt [°C] td [°C] ff [km/h] ff [kn] dd ppp [hPa] vv [km] rr [mm]
15.12.2019 18:00:00 13,0 12,0 4 2 S - 10 -
15.12.2019 17:00:00 15,0 14,0 5 3 SW - 10 -
15.12.2019 16:00:00 16,5 14,3 11 6 WSW 1020,5 10 0,0
15.12.2019 15:00:00 17,0 15,0 18 10 W - 9 -
15.12.2019 14:00:00 17,0 15,0 16 9 W - 10 -
15.12.2019 13:00:00 18,1 14,5 15 8 W 1020,4 10 -
15.12.2019 12:00:00 18,0 14,0 9 5 WSW - 10 -
15.12.2019 11:00:00 18,0 15,0 9 5 SW - 10 -
15.12.2019 10:00:00 15,9 14,6 4 2 NW 1020,5 8 0,0
15.12.2019 09:00:00 13,0 13,0 2 1 - - 10 -
15.12.2019 08:00:00 12,0 11,0 4 2 - - 8 -
15.12.2019 07:00:00 10,9 10,5 2 1 N 1018,7 10 -
15.12.2019 06:00:00 9,0 9,0 5 3 E - 10 -
15.12.2019 05:00:00 10,0 9,0 4 2 NNE - 10 -
15.12.2019 04:00:00 10,1 8,9 2 1 N 1017,3 10 0,0
15.12.2019 03:00:00 13,0 11,0 8 4 SSW - 10 -
15.12.2019 02:00:00 12,0 10,0 8 4 S - 10 -
15.12.2019 01:00:00 14,5 10,4 11 6 WSW 1015,5 10 -
15.12.2019 00:00:00 15,0 10,0 13 7 WSW - 10 -
14.12.2019 23:00:00 14,0 10,0 18 10 W - 10 -
14.12.2019 22:00:00 13,6 9,0 21 11 W 1013,9 10 0,0
14.12.2019 21:00:00 14,0 9,0 28 15 W - 10 -
14.12.2019 20:00:00 15,0 8,0 28 15 W - 10 -
14.12.2019 19:00:00 15,2 7,4 29 16 W 1012,0 10 -
14.12.2019 18:00:00 15,0 9,0 21 11 W - 10 -
14.12.2019 17:00:00 15,0 8,0 26 14 WSW - 10 -
14.12.2019 16:00:00 15,5 7,5 26 14 WSW 1008,1 10 0,0
14.12.2019 15:00:00 16,0 7,0 39 21 W - 10 -
14.12.2019 14:00:00 16,0 5,0 41 22 W - 10 -
14.12.2019 13:00:00 15,7 5,5 42 23 W 1002,4 10 -
14.12.2019 12:00:00 16,0 5,0 44 24 W - 10 -
14.12.2019 11:00:00 15,0 4,0 42 23 WNW - 10 -
14.12.2019 10:00:00 14,8 5,7 41 22 WNW 999,7 10 0,0
14.12.2019 09:00:00 14,0 5,0 54 29 WNW - 10 -
14.12.2019 08:00:00 13,0 6,0 59 32 W - 10 -
14.12.2019 07:00:00 14,4 4,3 52 28 WNW 995,0 10 -
14.12.2019 06:00:00 14,0 2,0 55 30 WNW - 10 -
14.12.2019 05:00:00 14,0 5,0 55 30 W - 10 -
14.12.2019 04:00:00 13,4 5,9 65 35 W 992,7 10 0,0
14.12.2019 03:00:00 - - - - - - - -
14.12.2019 02:00:00 11,0 7,0 18 10 WNW - 10 -
14.12.2019 01:00:00 13,2 8,3 41 22 W 990,6 10 -
14.12.2019 00:00:00 12,0 11,0 28 15 W - 10 -
13.12.2019 23:00:00 13,0 11,0 59 32 W - 5 -
13.12.2019 22:00:00 11,5 10,5 59 32 W 992,5 3,0 0,0
13.12.2019 21:00:00 13,0 13,0 11 6 - - 5 -
13.12.2019 20:00:00 12,0 11,0 16 9 WSW - 3,0 -
13.12.2019 19:00:00 14,2 10,8 24 13 SSW 995,1 10 -
13.12.2019 18:00:00 13,0 11,0 24 13 SSW - 8 -
13.12.2019 17:00:00 13,0 10,0 24 13 SSW - 10 -
13.12.2019 16:00:00 13,8 9,5 16 9 SW 999,0 10 0,0
13.12.2019 15:00:00 15,0 10,0 18 10 SW - 10 -
13.12.2019 14:00:00 14,0 9,0 22 12 SW - 10 -
13.12.2019 13:00:00 12,8 10,9 13 7 W 1001,6 10 -
13.12.2019 12:00:00 14,0 11,0 8 4 SSE - 8 -
13.12.2019 11:00:00 14,0 10,0 15 8 SW - 10 -
13.12.2019 10:00:00 13,6 10,4 15 8 SSW 1004,7 10 0,0
13.12.2019 09:00:00 13,0 10,0 16 9 WSW - 10 -
13.12.2019 08:00:00 13,0 9,0 16 9 W - 10 -
13.12.2019 07:00:00 13,4 9,0 24 13 W 1004,2 10 -
13.12.2019 06:00:00 - - - - - - - -
13.12.2019 05:00:00 11,0 9,0 26 14 W - 10 -
13.12.2019 04:00:00 10,7 9,2 21 11 WNW 1004,8 6 0,0
13.12.2019 03:00:00 12,0 9,0 22 12 W - 10 -
13.12.2019 02:00:00 11,0 8,0 16 9 W - 6 -
13.12.2019 01:00:00 11,9 7,7 28 15 WNW 1005,2 10 -
13.12.2019 00:00:00 13,0 9,0 24 13 W - 5 -
12.12.2019 23:00:00 14,0 7,0 29 16 W - 10 -
12.12.2019 22:00:00 11,5 6,9 31 17 WSW 1005,8 10 0,0
12.12.2019 21:00:00 13,0 6,0 34 18 W - 10 -
12.12.2019 20:00:00 13,0 5,0 39 21 W - 10 -
12.12.2019 19:00:00 12,8 5,6 41 22 WSW 1006,3 10 -
12.12.2019 18:00:00 11,0 10,0 13 7 WNW - 10 -
12.12.2019 17:00:00 11,0 10,0 26 14 W - 7 -
12.12.2019 16:00:00 11,1 9,6 9 5 W 1006,1 10 0,0
12.12.2019 15:00:00 11,0 9,0 18 10 WNW - 6 -
12.12.2019 14:00:00 13,0 9,0 13 7 SW - 10 -
12.12.2019 13:00:00 13,0 8,0 31 17 WSW - 10 -
12.12.2019 12:00:00 14,0 7,0 22 12 W - 10 -
12.12.2019 11:00:00 14,0 8,0 18 10 W - 10 -
12.12.2019 10:00:00 12,4 9,6 13 7 WSW 1007,8 6 0,0
12.12.2019 09:00:00 12,0 9,0 13 7 WNW - 10 -
12.12.2019 08:00:00 10,0 9,0 4 2 - - 10 -
12.12.2019 07:00:00 9,3 9,2 4 2 - 1007,1 10 -
12.12.2019 06:00:00 8,0 8,0 8 4 ENE - 10 -
12.12.2019 05:00:00 7,0 7,0 5 3 ENE - 10 -
12.12.2019 04:00:00 8,0 8,0 4 2 ENE - 10 -
12.12.2019 03:00:00 8,0 7,0 8 4 E - 10 -
12.12.2019 02:00:00 7,0 7,0 8 4 E - 10 -
12.12.2019 01:00:00 6,0 6,0 11 6 E - 10 -
12.12.2019 00:00:00 6,0 6,0 8 4 E - 10 -
11.12.2019 23:00:00 7,0 6,0 8 4 E - 10 -
11.12.2019 22:00:00 7,7 6,6 5 3 NNE 1008,9 10 0,0
11.12.2019 21:00:00 10,0 8,0 5 3 SSE - 10 -
11.12.2019 20:00:00 10,0 9,0 4 2 - - 10 -
11.12.2019 19:00:00 10,4 8,3 8 4 SSE 1008,6 10 -
11.12.2019 18:00:00 - - - - - - - -
11.12.2019 17:00:00 10,0 9,0 8 4 SSE - 9 -
11.12.2019 16:00:00 11,0 9,0 4 2 - - 8 -
11.12.2019 15:00:00 11,0 9,0 8 4 SSE - 10 -
11.12.2019 14:00:00 12,0 9,0 5 3 - - 10 -
11.12.2019 13:00:00 11,3 8,7 11 6 SSE 1007,3 10 -
11.12.2019 12:00:00 10,0 9,0 9 5 S - 10 -
11.12.2019 11:00:00 10,0 8,0 9 5 SSE - 10 -
11.12.2019 10:00:00 11,5 6,6 9 5 S 1008,7 10 0,0
11.12.2019 09:00:00 13,0 4,0 13 7 - - 10 -
11.12.2019 08:00:00 13,0 4,0 13 7 - - 10 -
11.12.2019 07:00:00 13,2 3,3 21 11 NNW 1007,5 10 -
11.12.2019 06:00:00 12,0 6,0 16 9 N - 10 -
11.12.2019 05:00:00 10,0 8,0 4 2 - - 10 -
11.12.2019 04:00:00 10,3 8,6 4 2 S 1007,0 10 0,0
11.12.2019 03:00:00 10,0 10,0 8 4 - - 10 -
11.12.2019 02:00:00 9,0 9,0 5 3 ENE - 10 -
11.12.2019 01:00:00 8,4 8,4 4 2 ENE 1008,3 10 -
11.12.2019 00:00:00 9,0 9,0 5 3 E - 10 -
10.12.2019 23:00:00 10,0 10,0 2 1 - - 10 -
10.12.2019 22:00:00 9,9 9,8 5 3 E 1008,8 10 0,0
10.12.2019 21:00:00 10,0 10,0 9 5 E - 10 -
10.12.2019 20:00:00 9,0 9,0 2 1 - - 10 -
10.12.2019 19:00:00 9,6 9,4 4 2 - 1007,9 10 -
10.12.2019 18:00:00 10,0 10,0 2 1 - - 10 -
10.12.2019 17:00:00 10,0 9,0 9 5 ENE - 10 -
10.12.2019 16:00:00 10,1 9,4 4 2 ESE 1007,5 10 0,0
10.12.2019 15:00:00 10,0 9,0 9 5 W - 5 -
10.12.2019 14:00:00 11,0 9,0 16 9 N - 3,0 -
10.12.2019 13:00:00 14,0 11,0 4 2 - - 10 -
10.12.2019 12:00:00 14,0 11,0 2 1 - - 10 -
10.12.2019 11:00:00 13,0 11,0 4 2 - - 10 -
10.12.2019 10:00:00 12,0 10,6 4 2 NE 1008,8 10 0,0
10.12.2019 09:00:00 11,0 10,0 11 6 ENE - 10 -
10.12.2019 08:00:00 10,0 10,0 4 2 - - 7 -
10.12.2019 07:00:00 10,1 9,4 8 4 ENE 1009,0 10 -
10.12.2019 06:00:00 11,0 9,0 11 6 NNW - 10 -
10.12.2019 05:00:00 10,0 10,0 8 4 W - 10 -
10.12.2019 04:00:00 11,2 9,8 2 1 N 1008,1 10 0,0
10.12.2019 03:00:00 13,0 11,0 5 3 W - 10 -
10.12.2019 02:00:00 13,0 10,0 9 5 W - 10 -
10.12.2019 01:00:00 14,3 10,9 13 7 W 1009,3 10 -
10.12.2019 00:00:00 15,0 13,0 16 9 WSW - 10 -
09.12.2019 23:00:00 16,0 12,0 26 14 WSW - 10 -
09.12.2019 22:00:00 14,7 12,4 16 9 WSW 1010,2 7 0,0
09.12.2019 21:00:00 16,0 12,0 18 10 SW - 10 -
09.12.2019 20:00:00 15,0 10,0 21 11 W - 10 -
09.12.2019 19:00:00 15,9 12,5 21 11 WSW 1011,3 10 -
09.12.2019 18:00:00 16,0 11,0 16 9 WSW - 10 -

tt = temperature
td = dewpoint
ff = wind speed
dd = wind direction
ppp = reduced air pressure
vv = visibility
rr = precipitation

Next stations